Погода в Сухиничи

Погода в Сухиничи : погода сейчас, прогноз погоды и архив. Всё, что Вы хотите узнать о погоде в Сухиничи!

Хотите узнать прогноз погоды в Сухиничи? Тогда Вам сюда: Погода в Сухиничи

Поиск расширенной информации на нашем сайте:

Другие новости

Новости СМИ2

Главная страница сайта

Новости сайта

03.07.2017

Напоминаем, что на нашем специализированном сайте Метеоцентр.Азия вы можете получить высокодетализированные автоматические прогнозы погоды по пунктам России, СНГ и мира в авиационном формате (включающие направление и скорость ветра, видимость, явления погоды, количество и форму облачности, нижнюю и верхнюю границу облачности).


Погода в Сухиничи - сегодня

Время (UTC), дата Ветер
(°,м/с) 
Видим.   Явления Облачность Т
(°С)
Тd
(°С)
f(%) Тe
(°С)
Pmin
(гПа)
dP
(гПа)
Po
(мм)
O2
(г/м3)
Тmin Tmax R s Состояние
почвы
09 17.10.17 310 (СЗ) 30000 м    10/4 600 м верхняя 
[Sc|Cs]
+13.1 +6.7 65 +12  1015.2  1.3  740  283           
12 17.10.17 300 (СЗ) 40000 м    10/10 2000 м 
[Ns]
+12.2 +4.7 60 +12  1016.9  1.5  741  285           
15 17.10.17 260 (З) 25000 м    10/0 верхняя 
[Cs]
+7.5 +3.2 74 +8  1018.7  1.4  742  291      0.1     
18 17.10.17 240 (ЮЗ) 14000 м    ясно 
+4.2 +2.4 88 +5  1018.6  -0.5  742  294    +13.2       
21 17.10.17 240 (ЮЗ) 12000 м    3/3 600 м кучево-дожд. 
[Cb cap]
+5.6 +3.8 88 +5  1017.5  -1  741  292           
00 18.10.17 240 (ЮЗ) 4{10}  18000 м  {ливн. осадки}  8/8 600 м 
[Sc]
+9 +6.5 84 +8  1013.6  -3.5  739  287           
03 18.10.17 240 (ЮЗ) 10 км    9/9 600 м 
[Sc]
+9.8 +8.2 90 +9  1011.7  -1.6  737  285  +3.6         
06 18.10.17 250 (З) 4900 м  слаб. морось  10/10 300 м 
[Frnb]
+10.1 +9 93 +9  1011.9  0.2  738  285  +3.6    0.0     
09 18.10.17 250 (З) 5{10}  20000 м  {морось}  9/5 600 м средняя 
[Sc|Ac As]
+13.2 +9.9 80 +13  1010.1  -1.5  737  281           
12 18.10.17 250 (З) 4{12}  22000 м  {морось}  10/10 2000 м 
[Ns]
+13.9 +9.8 76 +15  1008.6  -1.4  735  280           
15 18.10.17 260 (З) 18000 м    9/5 600 м средняя 
[Sc|Ac As]
+12.7 +9.6 81 +14  1008.8  0.2  736  281      0.0     
18 18.10.17 270 (З) 20000 м    9/9 2000 м средняя 
[Ac As]
+12.6 +8.1 74 +13  1009.6  0.7  736  282    +14.2  0.0     
21 18.10.17 280 (З) 22000 м    9/9 2000 м средняя 
[Ac As]
+11.7 +6.3 69 +12  1010.3  0.5  737  284           
00 19.10.17 280 (З) 20000 м    9/9 2000 м средняя 
[Ac As]
+10.4 +6.2 75 +11  1011.5  737  285           
03 19.10.17 350 (С) 12000 м    6/6 2000 м средняя 
[Ac As]
+8.8 +6.2 84 +8  1013.4  1.8  739  287  +7.5    0.0     
06 19.10.17 290 (З) 23000 м    6/0 верхняя 
[Cc]
+6.3 +2 74 +7  1016  2.2  740  291  +5        влажная 
09 19.10.17 320 (СЗ) 30000 м    9/5 2000 м средняя, верхняя 
[Ac trans|Ci]
+8.5 +1.9 63 +8  1017  1.1  741  289           
12 19.10.17 290 (З) 40000 м    8/0 средняя, верхняя 
[Ac cast|Ci fib]
+10 +1.1 54 +10  1017.2  0.3  741  288           
15 19.10.17 тихо ()   20000 м    3/3 2000 м средняя 
[Ac cast]
+4.4 +1.2 80 +4  1018.5  0.7  742  294           
18 19.10.17 350 (С) 22000 м    8/8 2000 м средняя 
[Ac As]
+5.6 +0.8 71 +5  1019.5  1.2  743  293    +10.1       
21 19.10.17 350 (С) 20000 м    9/9 2000 м средняя 
[Ac As]
+4.4 +0.4 75 +5  1020.6  0.9  743  295           
00 20.10.17 260 (З) 15000 м    9/9 2000 м средняя 
[Ac As]
+2 +0 87 +3  1021.5  0.6  744  298           
03 20.10.17 250 (З) 10 км    9/9 2000 м средняя 
[Ac As]
+0.9 +0 94 +2  1021.9  0.2  744  299  +0.3         
06 20.10.17 260 (З) 10 км    8/8 2000 м средняя 
[Ac As]
+2.3 +1 91 +3  1022.8  1.1  745  297  +0.3         
09 20.10.17 330 (СЗ) 23000 м    8/4 600 м верхняя 
[Sc|Ci fib]
+6.5 +1.1 68 +6  1023.1  0.7  745  293           
Время (UTC), дата Ветер
(°,м/с) 
Видим.   Явления Облачность Т
(°С)
Тd
(°С)
f(%) Тe
(°С)
Pmin
(гПа)
dP
(гПа)
Po
(мм)
O2
(г/м3)
Тmin Tmax R s Состояние
почвы

Для получения пояснительной информации подведите курсор к названию столбца.

ПОГОДА в Сухиничи - архив

Всё, что Вы хотите узнать о погоде в Сухиничи - удобно и подробно!

Выберите нужную дату (начиная с 1 января 2015* года) и нажмите кнопку "Найти".
Будут отображены архивные сводки погоды по пункту Сухиничи, начиная с указанной даты.


Отображать данные в формате CSV (для использования в таблицах Excel)


Внимание! Наш архив погоды предназначен исключительно для личного некоммерческого использования в познавательных целях. Если Вам необходимы официальные справки о состоянии погоды (для производственных, юридических, коммерческих и т.п. целей), обращайтесь в органы Росгидромета.

*Примечание: данная дата относится к архиву по метеостанциям СССР (Россия, СНГ, Балтия).
Архив по метеостанциям Зарубежной Европы и Азии (кроме Китая) хранится 10 дней, по другим регионам земного шара (Китай, Африка, Америка, Австралия, Океания) - 1 день.

Сухиничи - район местоположения метеостанции


Название, широта, долгота, высота метеостанции:
Сухиничи 54.1°ш. 35.3°д. 238 м над ур. моря [Российская Федерация]

Дополнительная информация

В oтличие oт бoльшинства пoгoдных сайтoв мы публикуем пoдрoбную метеoинфoрмацию в детальнoм прoфессиoнальнoм фoрмате.

Характеристики температуры и влажнoсти вoздуха измеряются на высoте 2 м в тени вдали oт зданий и деревьев.
Скoрoсть ветра измеряется на высoте 10 м (на урoвне рoста челoвека скoрoсть ветра ниже в 1.5-2 раза). Если метеoстанция нахoдится в гoрoде или в лесу, тo скoрoсть ветра занижена на 2-4 м/с пo сравнению с oткрытым местoм. Скoрoсть ветра над акватoриями крупных рек и oзёр, а также на вершинах хoлмoв на 2-5 м/с выше, чем в oбычных услoвиях.
Атмoсфернoе давление в разных тoчках местнoсти мoжет значительнo oтличаться oт давления на метеoстанции, в зависимoсти oт услoвий рельефа (при пoдъёме на 10 м давление пoнижается примернo на 1 мм рт.ст.).